Regional Weather Roundup
Issued by NWS

Home | Current Version | Previous Version | Text Only | Print | Product List | Glossary On
Versions: 1 2 3 4 5 6 7 8 9 10 11 12 13 14 15 16 17 18 19 20 21 22 23 24 25 26 27 28 29 30 31 32 33 34 35 36 37 38 39 40 41 42 43 44 45 46 47 48 49 50
000
ASUS44 KLUB 240601
RWRTX
WEST TEXAS WEATHER ROUNDUP
NATIONAL WEATHER SERVICE LUBBOCK TX
100 AM CDT MON APR 24 2017

NOTE: "FAIR" INDICATES FEW OR NO CLOUDS BELOW 12,000 FEET WITH NO
SIGNIFICANT WEATHER AND/OR OBSTRUCTIONS TO VISIBILITY.

TXZ004-006>008-010-012-014-016-OKZ002-240700-
TEXAS PANHANDLE/OKLAHOMA PANHANDLE

CITY           SKY/WX    TMP DP  RH WIND       PRES   REMARKS
AMARILLO       CLEAR     56  33  42 S26       29.89F
BORGER         CLEAR     56  33  42 S16G25    29.87F
CANADIAN       CLEAR     55  36  48 S12G17    29.89F
DALHART        CLEAR     56  37  49 S16       29.87S
DUMAS          CLEAR     53  36  50 S17       29.87S
GUYMON         CLEAR     54  34  46 S21G28    29.80F
HEREFORD       CLEAR     56  37  48 S9G24     29.93S
PAMPA          CLOUDY    53  34  48 S23G30    29.89F
PERRYTON       CLEAR     54  37  53 S18G25    29.84F
$$

TXZ026-029-035-045-048-240700-
SOUTHERN PANHANDLE/SOUTH PLAINS/ROLLING PLAINS

CITY           SKY/WX    TMP DP  RH WIND       PRES   REMARKS
CHILDRESS      CLEAR     53  36  52 SE10      29.94F
SEMINOLE       CLEAR     53  35  50 S7        29.99S
LUBBOCK        PTCLDY    58  30  34 S12       29.95F
PLAINVIEW      CLEAR     52  32  46 S9        29.93F
SNYDER         CLEAR    N/A N/A N/A SE9       29.99S
$$

TXZ052-054-060>062-072-078-127-140-154-169-240700-
PERMIAN BASIN/CONCHO VALLEY/BIG COUNTRY/EDWARDS PLATEAU

CITY           SKY/WX    TMP DP  RH WIND       PRES   REMARKS
ABILENE        CLEAR     51  39  63 S9        29.99S
BIG SPRING     CLEAR     57  30  36 SE9       30.01S
JUNCTION       CLEAR     48  36  63 CALM      30.03F
MIDLAND        CLEAR     58  32  37 S9        29.98F
ODESSA         CLEAR     62  32  32 S12       29.99F
SAN ANGELO     CLEAR     55  34  45 S7        30.01S
SONORA         PTCLDY    57  34  41 CALM      30.06F
SWEETWATER     CLEAR     53  36  52 S9        30.02R
WINK           CLEAR     61  35  37 SE10      29.94F
$$

TXZ055-058-074-075-080-082-240700-
FAR WEST/SOUTHWEST MOUNTAINS/TRANS PECOS

CITY           SKY/WX    TMP DP  RH WIND       PRES   REMARKS
ALPINE         CLEAR     56  32  40 S7        30.09F
DRYDEN           N/A     58  36  43 NE5       29.98F
EL PASO        PTCLDY    72  34  24 S8        29.89F
FORT STOCKTON  CLOUDY    61  35  37 S13       29.99R
GUADALUPE PASS CLOUDY    56  30  37 NE15        N/A
MARFA          CLOUDY    48  31  51 NE8       30.08F
PECOS          CLOUDY    62  35  35 E13       29.92F
$$

TXZ014-016-019-021>030-083-240700
TEXAS TECH WEST TEXAS MESONET/TEXAS PANHANDLE/NORTHERN SOUTH PLAINS

CITY           SKY/WX    TMP DP  RH WIND       PRES   REMARKS
ABERNATHY 5ENE   N/A     51  33  50 S12       29.96F
AMARILLO 9NNE    N/A     56  35  44 S24       29.86R
AMARILLO 7SSE    N/A     51  34  52 S17       29.92S
AMHERST 1NE      N/A     53  33  47 SE12      29.95S
BOOTLEG 11WNW    N/A     53  35  49 S20       29.94F
CANADIAN 6E      N/A     52  35  52 SE12      29.88S
CAPROCK CYN SP   N/A     52  33  47 S10       29.94F
CHILDRESS 2NNE   N/A     51  38  60 SE9       29.93F
CLARENDON 2WSW   N/A     52  34  49 S15       29.93S
CLAUDE 12SW      N/A     56  31  38 S16       29.92F
DIMMITT 2NE      N/A     51  35  54 S15       29.93F
FLOYDADA 2NNE    N/A     49  32  51 S10       29.95F
FRIONA 2NE       N/A     54  35  49 S16       29.93S
GOODLETT 3W      N/A     54  38  56 SE10      29.93F
HART 3N          N/A     52  35  50 S10       29.94F
HEREFORD 2NW     N/A     53  35  51 S13       29.92F
MCLEAN 1E        N/A     52  33  48 S17       29.90F
MULESHOE 2SSW    N/A     55  34  44 S12       29.94F
OLTON 6S         N/A     50  33  53 S12       29.94F
PALO DURO SP     N/A     55  32  42 S12       29.93F
PAMPA 2E         N/A     50  35  56 SE18      29.90S
PLAINVIEW 1S     N/A     53  34  47 S10       29.95S
SILVERTON 7ESE   N/A     54  29  39 S13       29.94F
TULIA 2ENE       N/A     51  36  57 S10       29.94S
TURKEY 2WSW      N/A     53  35  51 S10       29.93F
UMBARGER 3NNE    N/A     53  35  49 S20       29.91F
$$

TXZ033>036-039>041-045>048-240700
TEXAS TECH WEST TEXAS MESONET/SOUTH PLAINS

CITY           SKY/WX    TMP DP  RH WIND       PRES   REMARKS
AIKEN 3WSW       N/A     49  33  53 S12       29.95F
ANDREWS 2NE      N/A     55  33  42 S10       29.99S
ANTON 6SSW       N/A     53  34  49 SE12      29.96S
BROWNFIELD 2S    N/A     52  35  50 S8        29.97S
DENVR CTY 7WNW   N/A     52  32  46 SE14      29.96F
GAIL 2ESE        N/A     55  33  43 S9        29.98R
LAMESA 2SE       N/A     55  33  44 SE9       29.99S
LEVELLAND 4S     N/A     54  32  43 SE9       29.96F
LUBBOCK 3WNW     N/A     58  30  34 S10       29.97S
MORTON 1ENE      N/A     55  31  39 S13       29.95S
ODONNELL 1N      N/A     54  31  41 SE9       29.98S
PLAINS 3N        N/A     54  32  43 S13       29.97S
RALLS 1SE        N/A     51  32  49 S9        29.97F
REESE CENTER     N/A     53  32  43 S10       29.97S
SEAGRAVES 1SW    N/A     54  34  46 S9        29.98S
SEMINOLE 2NNE    N/A     52  34  50 S9        29.98F
SLATON 2NE       N/A     54  32  43 S10       29.97F
SNYDER 3E        N/A     53  34  47 SE10      29.98S
TAHOKA 3NNE      N/A     50  33  50 SE8       29.97F
WOLFFORTH 6SSW   N/A     56  31  38 SE10      29.97S
$$

TXZ031-032-036>038-042>044-240700-
TEXAS TECH WEST TEXAS MESONET/ROLLING PLAINS

CITY           SKY/WX    TMP DP  RH WIND       PRES   REMARKS
ASPERMONT 3NE    N/A     52  34  51 SE6       29.97S
FLUVANNA 3WNW    N/A     53  33  46 SE10      29.97F
GRAHAM 5SSW      N/A     56  32  41 SE13      29.97F
GUTHRIE 10WSW    N/A     51  34  51 S9        29.95S
HASKELL 1NW      N/A     56  35  45 SE7       29.96S
JAYTON 1SSE      N/A     52  34  50 SE7       29.97S
KNOX CITY 3NW    N/A     55  35  47 SE8       29.96S
LK A HENRY 1NW   N/A     53  32  43 S5        29.97S
NORTHFIELD 1S    N/A     50  36  58 S9        29.94F
ODELL 4ENE       N/A     53  41  63 SE8       29.96S
PADUCAH 10SW     N/A     48  36  63 S8        29.95F
POST 1NE         N/A     55  32  41 S6        29.97S
RRING SPRGS 3N   N/A     47  35  61 S8        29.95F
SEYMOUR 3NW      N/A     50  38  63 SE5       29.95F
SPUR 1W          N/A     50  32  48 SE2       29.96S
WEINERT 2NNE     N/A     53  35  50 SE8       29.97R
WHITE RVR 6NE    N/A     53  30  42 S6        29.96F
$$

TXZ052-054-060>062-072-078-127-140-154-169-240700-
TEXAS TECH WEST TEXAS MESONET/PERMIAN BASIN/
CONCHO VALLEY/BIG COUNTRY/EDWARDS PLATEAU

CITY           SKY/WX    TMP DP  RH WIND       PRES   REMARKS
COYANOSA 2N      N/A     62  35  36 SE10      29.96F
JUNCTION 1SSW    N/A     47  37  67 CALM      30.05S
MERTZON 3NNE     N/A     50  34  54 S3        30.02F
SAN ANGELO 7NW   N/A     55  33  43 SE7       30.01S
STRLNG CT 4WSW   N/A     57  32  38 SE10      30.01F
ST LAWRNCE 5SW   N/A     54  30  40 SE8       30.00F
SWEETWATR 11SW   N/A     54  36  50 SE9       30.01R
WALL 1E          N/A     55  34  44 S9        30.02S
$$

TXZ055-058-074-075-080-082-240700-
TEXAS TECH WEST TEXAS MESONET/FAR WEST/SOUTHWEST MOUNTAINS/TRANS PECOS

CITY           SKY/WX    TMP DP  RH WIND       PRES   REMARKS
PRSMN GAP BBNP   N/A     63  34  33 N13       30.01R
GUADLPE MTN NP   N/A     54  28  36 N1        30.06F
$$



USA.gov is the U.S. government's official web portal to all federal, state and local government web resources and services.